Regional Weather Roundup
Issued by NWS

Home | Current Version | Previous Version | Text Only | Print | Product List | Glossary Off
Versions: 1 2 3 4 5 6 7 8 9 10 11 12 13 14 15 16 17 18 19 20 21 22 23 24 25 26 27 28 29 30 31 32 33 34 35 36 37 38 39 40 41 42 43 44 45 46 47 48 49 50

000
ASUS43 KTOP 210808
RWRKS

WEATHER ROUNDUP FOR KANSAS
NATIONAL WEATHER SERVICE GOODLAND KS
300 AM CDT SUN SEP 21 2014

NOTE:  "FAIR" INDICATES FEW OR NO CLOUDS BELOW 12,000 FEET WITH NO
SIGNIFICANT WEATHER AND/OR OBSTRUCTIONS TO VISIBILITY.

KSZ001>006-013>018-027>032-041>047-210900-
NORTHWEST KANSAS

CITY           SKY/WX    TMP DP  RH WIND       PRES   REMARKS
GOODLAND       PTCLDY    56  48  74 NE5       30.28S
HAYS           CLEAR     66  48  52 NE13      30.16R
HILL CITY      CLEAR     61  48  62 NE6       30.20R
RUSSELL        CLEAR     65  52  62 NE9       30.14R
$$

KSZ061>065-074>080-084>089-210900-
SOUTHWEST KANSAS

CITY           SKY/WX    TMP DP  RH WIND       PRES   REMARKS
DODGE CITY     PTCLDY    66  62  87 N7        30.14S
ELKHART          N/A     67  60  78 N6          N/A
GARDEN CITY    CLEAR     64  58  80 NE7       30.17R
GREAT BEND     CLEAR     66  63  88 N14       30.14R
LIBERAL        CLEAR     72  63  73 NE10      30.16S
PRATT          CLEAR     70  63  78 NE3       30.12R
$$

KSZ066>073-081>083-090>101-210900-
SOUTHEAST KANSAS

CITY           SKY/WX    TMP DP  RH WIND       PRES   REMARKS
CHANUTE        CLOUDY    75  70  84 W3        30.04S
HUTCHINSON     MOCLDY    69  65  86 CALM      30.08R
MEDICINE LODGE   N/A     74  64  71 E8        30.06S
NEWTON         MOCLDY    68  63  83 CALM      30.10S
PARSONS        CLOUDY    73  70  90 N3        30.05R
WICHITA INTL   MOCLDY    75  68  78 NE5       30.06S
WICHITA JABRA  CLOUDY    72  67  84 CALM      30.06S
WICHITA MCCONL MOCLDY    74  70  85 NE6       30.06F HAZE
WINFIELD       CLOUDY    72  68  87 SE3       30.06S
$$

KSZ007>012-019>026-033>040-048>060-102>105-210900-
NORTHEAST KANSAS

CITY           SKY/WX    TMP DP  RH WIND       PRES   REMARKS
CONCORDIA      CLEAR     64  52  64 N9        30.12S
EMPORIA        PTCLDY    65  64  97 NW7       30.08R
LAWRENCE       CLEAR     65  58  78 N8        30.06R
MANHATTAN      CLEAR     67  55  65 N8        30.09R
MARYSVILLE     CLEAR     59  54  82 N7        30.11R
OLATHE IND     CLEAR     67  63  87 N12       30.06R
OLATHE EXE     CLEAR     69  64  84 N14       30.05R
SALINA         CLEAR     71  56  58 NE12G21   30.12R
TOPEKA BILLARD CLEAR     67  60  78 N10       30.07R
TOPEKA FORBES  CLEAR     67  59  75 N9        30.07R
$$



USA.gov is the U.S. government's official web portal to all federal, state and local government web resources and services.